Weather History for Corpus Christi, TX

Change the Weather History Date:

Saturday, November 16, 2013

  Actual Average Record
Temperature  
Mean Temperature 72 °F 66 °F  
Max Temperature 81 °F 76 °F 92 °F (2011)
Min Temperature 63 °F 56 °F 33 °F (1970)
Degree Days  
Heating Degree Days 0 3  
Month to date heating degree days 26 30  
Since 1 July heating degree days 26 40  
Cooling Degree Days 7 4  
Month to date cooling degree days 71 82  
Year to date cooling degree days 4054 3433  
Growing Degree Days 22 (Base 50)    
Moisture  
Dew Point 70 °F    
Average Humidity 87    
Maximum Humidity 100    
Minimum Humidity 74    
Precipitation  
Precipitation T in 0.06 in 4.55 in (2001)
Month to date precipitation 0.52 1.24  
Year to date precipitation 20.29 29.20  
Snow  
Snow 0.00 in - - ()
Month to date snowfall 0.0  
Since 1 July snowfall 0.0  
Since 1 September snowfall 0.0  
Snow Depth 0.00 in    
Sea Level Pressure  
Sea Level Pressure 29.84 in    
Wind  
Wind Speed 13 mph (SSE)    
Max Wind Speed 24 mph    
Max Gust Speed 29 mph    
Visibility 10 miles    
Events Rain    
T = Trace of Precipitation, MM = Missing Value Source: NWS Daily Summary

Daily Weather History Graph

Daily Weather History Graph

Search for Another Location

Airport:

Trip Planner

Search our weather history database for the weather conditions in past years. The results will help you decide how hot, cold, wet, or windy it might be!

Date:

Astronomy

Nov. 16, 2013 Rise Set
Actual Time 6:52 AM CST 5:37 PM CST
Civil Twilight 6:27 AM CST 6:02 PM CST
Nautical Twilight 5:59 AM CST 6:30 PM CST
Astronomical Twilight 5:31 AM CST 6:58 PM CST
Moon 5:10 PM CST (11/16) 5:54 AM CST (11/16)
Length of Visible Light 11h 34m
Length of Day
10h 45m
Waxing Gibbous, 99% of the Moon is Illuminated
Nov 16
Waxing Gibbous
Nov 17
Full
Nov 25
Last Quarter
Dec 2
New
Dec 9
First Quarter

Hourly Weather History & Observations

Time (CST) Temp. Heat Index Dew Point Humidity Pressure Visibility Wind Dir Wind Speed Gust Speed Precip Events Conditions
12:51 AM 64.9 °F - 63.0 °F 93% 29.91 in 10.0 mi SSE 6.9 mph - N/A   Partly Cloudy
1:51 AM 64.0 °F - 62.1 °F 93% 29.90 in 10.0 mi SSE 4.6 mph - N/A   Partly Cloudy
2:51 AM 64.9 °F - 63.0 °F 93% 29.88 in 10.0 mi SSE 6.9 mph - N/A   Partly Cloudy
3:51 AM 64.9 °F - 63.0 °F 93% 29.87 in 10.0 mi SSE 5.8 mph - N/A   Partly Cloudy
4:51 AM 64.0 °F - 63.0 °F 96% 29.86 in 10.0 mi SE 6.9 mph - N/A   Partly Cloudy
5:51 AM 64.9 °F - 64.0 °F 97% 29.86 in 10.0 mi SE 6.9 mph - N/A   Partly Cloudy
6:51 AM 66.9 °F - 66.0 °F 97% 29.86 in 9.0 mi SE 9.2 mph - N/A   Clear
7:51 AM 70.0 °F - 68.0 °F 93% 29.87 in 10.0 mi South 5.8 mph - N/A   Clear
8:51 AM 73.0 °F - 70.0 °F 90% 29.89 in 10.0 mi SSE 5.8 mph - N/A   Partly Cloudy
9:51 AM 77.0 °F - 72.0 °F 84% 29.91 in 10.0 mi SSE 11.5 mph - N/A   Scattered Clouds
10:26 AM 78.8 °F - 71.6 °F 78% 29.91 in 10.0 mi South 12.7 mph - N/A   Mostly Cloudy
10:51 AM 79.0 °F - 72.0 °F 79% 29.90 in 10.0 mi SSE 13.8 mph - N/A   Mostly Cloudy
11:21 AM 80.6 °F 84.6 °F 71.6 °F 74% 29.88 in 10.0 mi South 17.3 mph - N/A   Mostly Cloudy
11:40 AM 80.6 °F 84.6 °F 71.6 °F 74% 29.87 in 10.0 mi South 18.4 mph - N/A   Mostly Cloudy
11:51 AM 80.1 °F 83.6 °F 71.1 °F 74% 29.87 in 10.0 mi SSE 17.3 mph - N/A   Mostly Cloudy
12:51 PM 79.0 °F - 72.0 °F 79% 29.84 in 10.0 mi SSE 16.1 mph - 0.00 in Rain Light Rain
1:13 PM 80.6 °F 84.6 °F 71.6 °F 74% 29.82 in 10.0 mi SSE 20.7 mph - 0.00 in   Mostly Cloudy
1:35 PM 80.6 °F 84.6 °F 71.6 °F 74% 29.81 in 10.0 mi SSE 21.9 mph - 0.00 in   Mostly Cloudy
1:51 PM 79.0 °F - 72.0 °F 79% 29.80 in 10.0 mi SSE 23.0 mph - 0.00 in Rain Light Rain
2:05 PM 80.6 °F 84.6 °F 71.6 °F 74% 29.79 in 10.0 mi SSE 21.9 mph 28.8 mph 0.00 in   Mostly Cloudy
2:51 PM 80.1 °F 83.8 °F 72.0 °F 76% 29.79 in 10.0 mi SSE 21.9 mph - 0.00 in   Mostly Cloudy
3:51 PM 79.0 °F - 72.0 °F 79% 29.79 in 10.0 mi SSE 20.7 mph 25.3 mph 0.00 in   Mostly Cloudy
4:51 PM 78.1 °F - 72.0 °F 81% 29.79 in 10.0 mi SSE 18.4 mph - N/A   Mostly Cloudy
5:20 PM 77.0 °F - 71.6 °F 83% 29.79 in 10.0 mi SSE 17.3 mph - N/A   Mostly Cloudy
5:25 PM 77.0 °F - 71.6 °F 83% 29.79 in 10.0 mi SSE 17.3 mph - N/A   Mostly Cloudy
5:51 PM 77.0 °F - 72.0 °F 84% 29.78 in 10.0 mi SSE 16.1 mph - N/A   Mostly Cloudy
6:51 PM 75.9 °F - 72.0 °F 87% 29.80 in 10.0 mi SSE 15.0 mph - N/A   Scattered Clouds
7:51 PM 75.9 °F - 73.0 °F 91% 29.81 in 10.0 mi SSE 16.1 mph - N/A   Scattered Clouds
8:51 PM 75.0 °F - 72.0 °F 90% 29.82 in 10.0 mi SSE 13.8 mph - N/A   Scattered Clouds
9:51 PM 75.9 °F - 72.0 °F 87% 29.81 in 10.0 mi South 16.1 mph - N/A   Scattered Clouds
10:33 PM 75.2 °F - 71.6 °F 89% 29.82 in 10.0 mi South 9.2 mph - N/A   Mostly Cloudy
10:51 PM 75.0 °F - 72.0 °F 90% 29.82 in 10.0 mi South 11.5 mph - N/A   Mostly Cloudy
11:09 PM 75.2 °F - 71.6 °F 89% 29.81 in 10.0 mi South 11.5 mph - N/A   Mostly Cloudy
11:51 PM 75.0 °F - 71.1 °F 87% 29.81 in 10.0 mi South 13.8 mph - N/A   Scattered Clouds